{"data":{"norad_id":53602,"intl_designator":"2022-104Q","name":"STARLINK-4648","alt_names":[],"object_type":"PAYLOAD","status":"ACTIVE","operator":null,"country":"US","launch_date":"2022-08-28","launch_site_code":"AFETR","launch_vehicle":null,"mission":null,"orbit_class":"UNKNOWN","rcs_meters":null,"size_class":null,"mass_kg":null,"dimensions":null,"purposes":["comms"],"wikipedia_slug":null,"has_3d_model":false,"image_url":null,"decayed_at":null,"tle_current":{"epoch":"2026-09-20T21:10:23.530656Z","epoch_age_seconds":45701,"freshness":"FRESH","line1":"1 53602U 22104Q   26263.88221679  .00000059  00000+0  12880-4 0  9993","line2":"2 53602  53.1603  71.6132 0001199  84.3824 275.7315 15.34392286225300","mean_motion":15.34392286,"eccentricity":0.0001199,"inclination_deg":53.1603,"raan_deg":71.6132,"arg_perigee_deg":84.3824,"mean_anomaly_deg":275.7315,"bstar":1.288e-5,"rev_number":22530,"period_min":93.848229891323,"perigee_km":461.90594844298,"apogee_km":463.54638743065,"semimajor_km":6840.8631679368,"source":"CELESTRAK","updated_at":"2026-09-21T09:00:32.937404Z"}}}